OH6HPS Weather Reports


time (UTC)temp
C
wind
direction
speed
KPH
gust
KPH
rain 1hr
cm
rain 24hr
cm
rain mn
cm
humidity
%
barometer
mb
20260906063702 11 223 4.8 8.0 0.00 0.00 0.00 85 1006.7
20260906062703 11 238 1.6 8.0 0.00 0.00 0.00 86 1006.7
20260906061703 10 192 3.2 4.8 0.00 0.00 0.00 87 1006.6
20260906060703 10 282 1.6 6.4 0.00 0.00 0.00 89 1006.6
20260906055703 9 262 0.0 8.0 0.00 0.00 0.00 89 1006.4
20260906054702 9 213 1.6 8.0 0.00 0.00 0.00 90 1006.5
20260906053703 8 230 3.2 4.8 0.00 0.00 0.00 92 1006.3
20260906052702 8 59 1.6 3.2 0.00 0.00 0.00 94 1006.2
20260906051703 7 250 0.0 3.2 0.00 0.00 0.00 95 1006.1
20260906050702 7 250 0.0 3.2 0.00 0.00 0.00 95 1006.0
20260906045702 7 272 0.0 1.6 0.00 0.00 0.00 94 1005.9
20260906044703 7 272 0.0 1.6 0.00 0.00 0.00 94 1006.0
20260906043702 7 272 1.6 6.4 0.00 0.00 0.00 94 1005.8
20260906042703 6 295 1.6 3.2 0.00 0.00 0.00 93 1005.7
20260906041702 7 245 0.0 1.6 0.00 0.00 0.00 93 1005.5
20260906040703 7 245 0.0 6.4 0.00 0.00 0.00 93 1005.4
20260906035702 7 285 1.6 4.8 0.00 0.00 0.00 93 1005.4
20260906034702 7 214 1.6 4.8 0.00 0.00 0.00 93 1005.3
20260906033704 7 214 0.0 3.2 0.00 0.00 0.00 93 1005.2
20260906032703 7 216 1.6 4.8 0.00 0.00 0.00 92 1005.0
20260906031703 7 250 1.6 4.8 0.00 0.00 0.00 91 1004.9
20260906030702 7 250 0.0 3.2 0.00 0.00 0.00 91 1004.8
20260906025703 8 259 0.0 3.2 0.00 0.00 0.00 91 1004.5
20260906024703 8 66 1.6 4.8 0.00 0.00 0.00 91 1004.4
20260906023702 8 73 1.6 9.7 0.00 0.00 0.00 91 1004.3
20260906022703 8 216 3.2 6.4 0.00 0.00 0.00 92 1004.4
20260906021703 8 281 3.2 9.7 0.00 0.00 0.00 92 1004.3
20260906020702 8 59 3.2 9.7 0.00 0.00 0.00 92 1004.1
20260906015703 8 264 1.6 11.3 0.00 0.00 0.00 93 1004.0
20260906014703 8 293 6.4 14.5 0.00 0.00 0.00 93 1003.9
20260906013703 8 56 0.0 9.7 0.00 0.00 0.00 93 1003.8
20260906012702 7 283 1.6 6.4 0.00 0.00 0.00 92 1003.9
20260906011703 7 248 1.6 4.8 0.00 0.00 0.00 92 1003.6
20260906010702 8 258 1.6 4.8 0.00 0.00 0.00 91 1003.5
20260906005703 8 295 1.6 6.4 0.00 0.00 0.00 91 1003.4
20260906004702 8 268 3.2 4.8 0.00 0.00 0.00 91 1003.2
20260906003702 8 0 3.2 9.7 0.00 0.00 0.00 91 1003.2
20260906002702 8 68 1.6 8.0 0.00 0.00 0.00 91 1003.1
20260906001702 8 52 1.6 4.8 0.00 0.00 0.00 91 1002.9
20260906000702 8 278 1.6 11.3 0.00 0.00 0.00 91 1002.8
20260905235702 8 87 1.6 8.0 0.00 0.00 0.00 91 1002.6
20260905234703 8 192 0.0 8.0 0.00 0.00 0.00 91 1002.5
20260905233702 8 265 1.6 11.3 0.00 0.00 0.00 91 1002.4
20260905232702 8 148 1.6 4.8 0.00 0.00 0.00 92 1002.3
20260905231702 8 158 1.6 6.4 0.00 0.00 0.00 92 1002.1
20260905230701 9 147 0.0 3.2 0.00 0.00 0.00 91 1002.1
20260905225703 9 234 1.6 8.0 0.00 0.00 0.00 92 1002.0
20260905224702 9 94 3.2 11.3 0.00 0.00 0.00 92 1001.8
20260905223702 9 259 1.6 6.4 0.00 0.00 0.00 93 1001.7
20260905222703 9 247 0.0 4.8 0.00 0.00 0.00 93 1001.7
20260905221702 9 58 1.6 8.0 0.00 0.00 0.00 94 1001.6
20260905220703 9 55 0.0 3.2 0.00 0.00 0.00 95 1001.5
20260905215702 9 203 1.6 6.4 0.00 0.00 0.00 94 1001.3
20260905214702 9 0 1.6 3.2 0.00 0.00 0.00 93 1001.3
20260905213702 9 0 0.0 3.2 0.00 0.00 0.00 95 1001.2
20260905212702 9 0 0.0 3.2 0.00 0.00 0.00 93 1001.1
20260905211703 9 0 0.0 1.6 0.00 0.00 0.00 93 1001.0
20260905210702 9 0 0.0 3.2 0.00 0.00 0.00 93 1000.9
20260905205703 10 285 0.0 1.6 0.00 0.00 0.00 94 1000.8
20260905204702 9 285 0.0 3.2 0.00 0.00 0.00 94 1000.6
20260905203703 9 285 0.0 3.2 0.00 0.00 0.00 94 1000.4
20260905202702 9 289 0.0 3.2 0.00 0.00 0.00 93 1000.2
20260905201702 9 281 0.0 1.6 0.00 0.00 0.00 92 1000.1
20260905200703 9 281 0.0 0.0 0.00 0.00 0.00 92 1000.0
20260905195702 10 281 0.0 0.0 0.00 0.00 0.00 91 999.8
20260905194703 10 281 0.0 0.0 0.00 0.00 0.00 91 999.6
20260905193702 10 281 0.0 0.0 0.00 0.00 0.00 91 999.5
20260905192702 10 281 0.0 0.0 0.00 0.00 0.00 91 999.5
20260905191703 10 281 0.0 0.0 0.00 0.00 0.00 91 999.4
20260905190702 11 281 0.0 0.0 0.00 0.00 0.00 90 999.4
20260905185702 11 281 0.0 0.0 0.00 0.00 0.00 89 999.5
20260905184702 11 281 0.0 0.0 0.00 0.00 0.00 89 999.4
20260905183702 11 281 0.0 0.0 0.00 0.00 0.00 88 999.3
20260905182702 12 281 0.0 0.0 0.00 0.00 0.00 87 999.2
20260905181702 12 281 0.0 0.0 0.00 0.00 0.00 86 999.2
20260905180703 13 281 0.0 0.0 0.00 0.00 0.00 86 999.1
20260905175702 13 281 0.0 0.0 0.00 0.00 0.00 85 999.0
20260905174702 13 281 0.0 1.6 0.00 0.00 0.00 85 998.9
20260905173703 13 281 0.0 3.2 0.00 0.00 0.00 83 998.8
20260905172702 14 281 0.0 0.0 0.00 0.00 0.00 80 998.7
20260905171703 14 281 0.0 0.0 0.00 0.00 0.00 78 998.5
20260905170702 15 281 0.0 6.4 0.00 0.00 0.00 76 998.4
20260905165702 15 234 0.0 6.4 0.00 0.00 0.00 74 998.3
20260905164703 15 255 0.0 4.8 0.00 0.00 0.00 71 998.1
20260905163703 16 255 0.0 6.4 0.00 0.00 0.00 69 998.0
20260905162703 16 262 1.6 8.0 0.00 0.00 0.00 69 997.9
20260905161703 16 281 3.2 11.3 0.00 0.00 0.00 69 997.7
20260905160703 17 258 3.2 9.7 0.00 0.00 0.00 69 997.7
20260905155702 17 228 3.2 4.8 0.00 0.00 0.00 69 997.5
20260905154702 17 196 3.2 4.8 0.00 0.00 0.00 68 997.4
20260905153702 17 133 3.2 11.3 0.00 0.00 0.00 67 997.3
20260905152702 17 65 1.6 16.1 0.00 0.00 0.00 67 997.3
20260905151702 17 103 1.6 9.7 0.00 0.00 0.00 67 997.1
20260905150702 17 221 3.2 8.0 0.00 0.00 0.00 65 997.1
20260905145702 17 254 3.2 8.0 0.00 0.00 0.00 64 997.0
20260905144703 17 71 3.2 8.0 0.00 0.00 0.00 62 996.9
20260905143703 17 68 1.6 11.3 0.00 0.00 0.00 62 996.7
20260905142703 17 159 1.6 4.8 0.00 0.00 0.00 65 996.6
20260905141703 17 82 0.0 1.6 0.00 0.00 0.00 63 996.5
20260905140702 17 78 0.0 1.6 0.00 0.00 0.00 67 996.5
20260905135703 17 72 0.0 1.6 0.00 0.00 0.00 65 996.4
20260905134703 17 72 0.0 3.2 0.00 0.00 0.00 57 996.4
20260905133702 18 66 3.2 9.7 0.00 0.00 0.00 55 996.3
20260905132703 18 245 6.4 11.3 0.00 0.00 0.00 52 996.2
20260905131703 18 261 3.2 6.4 0.00 0.00 0.00 56 996.1
20260905130703 17 271 1.6 3.2 0.00 0.00 0.00 63 996.1
20260905125703 17 271 1.6 4.8 0.00 0.00 0.00 63 996.1
20260905124703 18 87 1.6 6.4 0.00 0.00 0.00 61 996.1
20260905123702 18 290 1.6 4.8 0.00 0.00 0.00 62 996.0
20260905122702 18 0 3.2 8.0 0.00 0.00 0.00 58 996.0
20260905121702 18 78 3.2 8.0 0.00 0.00 0.00 59 996.0
20260905120703 18 56 3.2 11.3 0.00 0.00 0.00 56 995.9
20260905115702 19 271 3.2 17.7 0.00 0.00 0.00 56 995.8
20260905114703 18 180 6.4 11.3 0.00 0.00 0.00 56 995.8
20260905113703 17 216 4.8 6.4 0.00 0.00 0.00 63 995.8
20260905112702 17 244 3.2 6.4 0.00 0.00 0.00 62 995.8
20260905111704 18 210 3.2 11.3 0.00 0.00 0.00 57 995.7
20260905110703 19 210 3.2 8.0 0.00 0.00 0.00 55 995.5
20260905105702 18 0 1.6 8.0 0.00 0.00 0.00 57 995.4
20260905104703 18 245 3.2 9.7 0.00 0.00 0.00 60 995.4
20260905103703 18 83 3.2 9.7 0.00 0.00 0.00 60 995.4
20260905102702 17 99 4.8 6.4 0.00 0.03 0.00 64 995.3
20260905101702 17 90 0.0 3.2 0.00 0.05 0.00 67 995.2
20260905100703 17 90 0.0 9.7 0.00 0.08 0.00 66 995.1
20260905095703 18 69 4.8 9.7 0.00 0.08 0.00 62 995.1
20260905094702 18 231 0.0 14.5 0.00 0.08 0.00 67 994.9
20260905093703 18 69 8.0 17.7 0.00 0.08 0.00 65 994.9
20260905092702 18 231 4.8 9.7 0.00 0.08 0.00 65 994.9
20260905091702 17 149 3.2 8.0 0.00 0.08 0.00 68 994.8
20260905090702 17 0 3.2 9.7 0.00 0.08 0.00 67 994.9
20260905085701 17 252 1.6 9.7 0.00 0.08 0.00 66 994.8
20260905084701 17 140 1.6 8.0 0.00 0.08 0.00 68 994.7
20260905083701 17 94 4.8 9.7 0.00 0.08 0.00 73 994.6
20260905082701 16 244 3.2 9.7 0.00 0.08 0.00 75 994.6
20260905081700 16 66 6.4 8.0 0.00 0.08 0.00 78 994.7
20260905080701 15 221 0.0 4.8 0.00 0.08 0.00 81 994.6
20260905075659 15 138 4.8 6.4 0.00 0.08 0.00 86 994.5
20260905074659 14 127 1.6 6.4 0.00 0.08 0.00 84 994.5
20260905073700 13 110 4.8 6.4 0.00 0.08 0.00 90 994.4
20260905072659 12 290 1.6 6.4 0.00 0.08 0.00 93 994.4
20260905071659 11 255 1.6 4.8 0.00 0.08 0.00 95 994.4
20260905070659 10 252 1.6 4.8 0.00 0.08 0.00 97 994.3
20260905065659 10 252 1.6 3.2 0.00 0.08 0.00 97 994.2
20260905064658 9 252 1.6 3.2 0.00 0.08 0.00 97 994.3